Year,Month,Day,Hour,Minute,Value (Times are PST for temperature in C)
2009,02,19,00,00,-0.90
2009,02,19,00,01,-0.90
2009,02,19,00,02,-0.90
2009,02,19,00,03,-0.90
2009,02,19,00,04,-0.90
2009,02,19,00,05,-0.90
2009,02,19,00,06,-0.90
2009,02,19,00,07,-0.90
2009,02,19,00,08,-0.80
2009,02,19,00,09,-0.80
2009,02,19,00,10,-0.80
2009,02,19,00,11,-0.90
2009,02,19,00,12,-0.90
2009,02,19,00,13,-0.90
2009,02,19,00,14,-0.90
2009,02,19,00,15,-0.90
2009,02,19,00,16,-0.90
2009,02,19,00,17,-0.90
2009,02,19,00,18,-0.90
2009,02,19,00,19,-0.90
2009,02,19,00,20,-1.00
2009,02,19,00,21,-1.00
2009,02,19,00,22,-1.00
2009,02,19,00,23,-1.00
2009,02,19,00,24,-1.00
2009,02,19,00,25,-1.10
2009,02,19,00,26,-1.10
2009,02,19,00,27,-1.10
2009,02,19,00,28,-1.10
2009,02,19,00,29,-1.10
2009,02,19,00,30,-1.10
2009,02,19,00,31,-1.20
2009,02,19,00,32,-1.20
2009,02,19,00,33,-1.20
2009,02,19,00,34,-1.30
2009,02,19,00,35,-1.30
2009,02,19,00,36,-1.30
2009,02,19,00,37,-1.30
2009,02,19,00,38,-1.40
2009,02,19,00,39,-1.40
2009,02,19,00,40,-1.40
2009,02,19,00,41,-1.40
2009,02,19,00,42,-1.40
2009,02,19,00,43,-1.30
2009,02,19,00,44,-1.30
2009,02,19,00,45,-1.30
2009,02,19,00,46,-1.30
2009,02,19,00,47,-1.30
2009,02,19,00,48,-1.30
2009,02,19,00,49,-1.30
2009,02,19,00,50,-1.30
2009,02,19,00,51,-1.30
2009,02,19,00,52,-1.30
2009,02,19,00,53,-1.30
2009,02,19,00,54,-1.30
2009,02,19,00,55,-1.30
2009,02,19,00,56,-1.30
2009,02,19,00,57,-1.30
2009,02,19,00,58,-1.30
2009,02,19,00,59,-1.30
2009,02,19,01,00,-1.30
2009,02,19,01,01,-1.30
2009,02,19,01,02,-1.30
2009,02,19,01,03,-1.20
2009,02,19,01,04,-1.20
2009,02,19,01,05,-1.20
2009,02,19,01,06,-1.20
2009,02,19,01,07,-1.30
2009,02,19,01,08,-1.30
2009,02,19,01,09,-1.30
2009,02,19,01,10,-1.30
2009,02,19,01,11,-1.30
2009,02,19,01,12,-1.30
2009,02,19,01,13,-1.30
2009,02,19,01,14,-1.30
2009,02,19,01,15,-1.40
2009,02,19,01,16,-1.40
2009,02,19,01,17,-1.40
2009,02,19,01,18,-1.40
2009,02,19,01,19,-1.40
2009,02,19,01,20,-1.40
2009,02,19,01,21,-1.40
2009,02,19,01,22,-1.40
2009,02,19,01,23,-1.40
2009,02,19,01,24,-1.40
2009,02,19,01,25,-1.40
2009,02,19,01,26,-1.50
2009,02,19,01,27,-1.50
2009,02,19,01,28,-1.50
2009,02,19,01,29,-1.50
2009,02,19,01,30,-1.60
2009,02,19,01,31,-1.60
2009,02,19,01,32,-1.60
2009,02,19,01,33,-1.60
2009,02,19,01,34,-1.60
2009,02,19,01,35,-1.60
2009,02,19,01,36,-1.60
2009,02,19,01,37,-1.60
2009,02,19,01,38,-1.60
2009,02,19,01,39,-1.60
2009,02,19,01,40,-1.70
2009,02,19,01,41,-1.70
2009,02,19,01,42,-1.70
2009,02,19,01,43,-1.70
2009,02,19,01,44,-1.70
2009,02,19,01,45,-1.70
2009,02,19,01,46,-1.70
2009,02,19,01,47,-1.70
2009,02,19,01,48,-1.70
2009,02,19,01,49,-1.70
2009,02,19,01,50,-1.70
2009,02,19,01,51,-1.70
2009,02,19,01,52,-1.70
2009,02,19,01,53,-1.70
2009,02,19,01,54,-1.70
2009,02,19,01,55,-1.70
2009,02,19,01,56,-1.70
2009,02,19,01,57,-1.70
2009,02,19,01,58,-1.70
2009,02,19,01,59,-1.80
2009,02,19,02,00,-1.80
2009,02,19,02,01,-1.80
2009,02,19,02,02,-1.80
2009,02,19,02,03,-1.80
2009,02,19,02,04,-1.80
2009,02,19,02,05,-1.80
2009,02,19,02,06,-1.80
2009,02,19,02,07,-1.80
2009,02,19,02,08,-1.80
2009,02,19,02,09,-1.80
2009,02,19,02,10,-1.90
2009,02,19,02,11,-1.90
2009,02,19,02,12,-1.90
2009,02,19,02,13,-1.90
2009,02,19,02,14,-1.90
2009,02,19,02,15,-1.90
2009,02,19,02,16,-1.90
2009,02,19,02,17,-1.90
2009,02,19,02,18,-1.90
2009,02,19,02,19,-1.90
2009,02,19,02,20,-1.90
2009,02,19,02,21,-1.80
2009,02,19,02,22,-1.80
2009,02,19,02,23,-1.80
2009,02,19,02,24,-1.80
2009,02,19,02,25,-1.80
2009,02,19,02,26,-1.80
2009,02,19,02,27,-1.80
2009,02,19,02,28,-1.80
2009,02,19,02,29,-1.80
2009,02,19,02,30,-1.80
2009,02,19,02,31,-1.80
2009,02,19,02,32,-1.80
2009,02,19,02,33,-1.80
2009,02,19,02,34,-1.80
2009,02,19,02,35,-1.80
2009,02,19,02,36,-1.80
2009,02,19,02,37,-1.80
2009,02,19,02,38,-1.80
2009,02,19,02,39,-1.70
2009,02,19,02,40,-1.70
2009,02,19,02,41,-1.70
2009,02,19,02,42,-1.70
2009,02,19,02,43,-1.70
2009,02,19,02,44,-1.70
2009,02,19,02,45,-1.70
2009,02,19,02,46,-1.80
2009,02,19,02,47,-1.80
2009,02,19,02,48,-1.80
2009,02,19,02,49,-1.80
2009,02,19,02,50,-1.80
2009,02,19,02,51,-1.80
2009,02,19,02,52,-1.90
2009,02,19,02,53,-1.90
2009,02,19,02,54,-1.90
2009,02,19,02,55,-1.90
2009,02,19,02,56,-1.90
2009,02,19,02,57,-1.90
2009,02,19,02,58,-1.90
2009,02,19,02,59,-2.00
2009,02,19,03,00,-2.00
2009,02,19,03,01,-2.00
2009,02,19,03,02,-2.00
2009,02,19,03,03,-2.00
2009,02,19,03,04,-2.00
2009,02,19,03,05,-2.10
2009,02,19,03,06,-2.10
2009,02,19,03,07,-2.10
2009,02,19,03,08,-2.10
2009,02,19,03,09,-2.10
2009,02,19,03,10,-2.10
2009,02,19,03,11,-2.10
2009,02,19,03,12,-2.10
2009,02,19,03,13,-2.20
2009,02,19,03,14,-2.20
2009,02,19,03,15,-2.20
2009,02,19,03,16,-2.20
2009,02,19,03,17,-2.20
2009,02,19,03,18,-2.20
2009,02,19,03,19,-2.20
2009,02,19,03,20,-2.20
2009,02,19,03,21,-2.20
2009,02,19,03,22,-2.20
2009,02,19,03,23,-2.20
2009,02,19,03,24,-2.20
2009,02,19,03,25,-2.20
2009,02,19,03,26,-2.20
2009,02,19,03,27,-2.20
2009,02,19,03,28,-2.20
2009,02,19,03,29,-2.20
2009,02,19,03,30,-2.20
2009,02,19,03,31,-2.20
2009,02,19,03,32,-2.20
2009,02,19,03,33,-2.20
2009,02,19,03,34,-2.20
2009,02,19,03,35,-2.20
2009,02,19,03,36,-2.20
2009,02,19,03,37,-2.20
2009,02,19,03,38,-2.20
2009,02,19,03,39,-2.20
2009,02,19,03,40,-2.20
2009,02,19,03,41,-2.20
2009,02,19,03,42,-2.20
2009,02,19,03,43,-2.20
2009,02,19,03,44,-2.20
2009,02,19,03,45,-2.20
2009,02,19,03,46,-2.20
2009,02,19,03,47,-2.20
2009,02,19,03,48,-2.20
2009,02,19,03,49,-2.20
2009,02,19,03,50,-2.20
2009,02,19,03,51,-2.20
2009,02,19,03,52,-2.20
2009,02,19,03,53,-2.20
2009,02,19,03,54,-2.30
2009,02,19,03,55,-2.30
2009,02,19,03,56,-2.20
2009,02,19,03,57,-2.20
2009,02,19,03,58,-2.20
2009,02,19,03,59,-2.20
2009,02,19,04,00,-2.20
2009,02,19,04,01,-2.20
2009,02,19,04,02,-2.20
2009,02,19,04,03,-2.30
2009,02,19,04,04,-2.30
2009,02,19,04,05,-2.30
2009,02,19,04,06,-2.30
2009,02,19,04,07,-2.30
2009,02,19,04,08,-2.30
2009,02,19,04,09,-2.30
2009,02,19,04,10,-2.30
2009,02,19,04,11,-2.30
2009,02,19,04,12,-2.30
2009,02,19,04,13,-2.30
2009,02,19,04,14,-2.30
2009,02,19,04,15,-2.30
2009,02,19,04,16,-2.30
2009,02,19,04,17,-2.30
2009,02,19,04,18,-2.30
2009,02,19,04,19,-2.30
2009,02,19,04,20,-2.30
2009,02,19,04,21,-2.30
2009,02,19,04,22,-2.30
2009,02,19,04,23,-2.30
2009,02,19,04,24,-2.30
2009,02,19,04,25,-2.30
2009,02,19,04,26,-2.30
2009,02,19,04,27,-2.30
2009,02,19,04,28,-2.30
2009,02,19,04,29,-2.30
2009,02,19,04,30,-2.30
2009,02,19,04,31,-2.30
2009,02,19,04,32,-2.30
2009,02,19,04,33,-2.30
2009,02,19,04,34,-2.30
2009,02,19,04,35,-2.30
2009,02,19,04,36,-2.30
2009,02,19,04,37,-2.30
2009,02,19,04,38,-2.40
2009,02,19,04,39,-2.40
2009,02,19,04,40,-2.40
2009,02,19,04,41,-2.40
2009,02,19,04,42,-2.40
2009,02,19,04,43,-2.40
2009,02,19,04,44,-2.40
2009,02,19,04,45,-2.40
2009,02,19,04,46,-2.40
2009,02,19,04,47,-2.40
2009,02,19,04,48,-2.40
2009,02,19,04,49,-2.40
2009,02,19,04,50,-2.40
2009,02,19,04,51,-2.40
2009,02,19,04,52,-2.40
2009,02,19,04,53,-2.40
2009,02,19,04,54,-2.30
2009,02,19,04,55,-2.30
2009,02,19,04,56,-2.30
2009,02,19,04,57,-2.30
2009,02,19,04,58,-2.30
2009,02,19,04,59,-2.20
2009,02,19,05,00,-2.20
2009,02,19,05,01,-2.20
2009,02,19,05,02,-2.20
2009,02,19,05,03,-2.30
2009,02,19,05,04,-2.30
2009,02,19,05,05,-2.30
2009,02,19,05,06,-2.30
2009,02,19,05,07,-2.30
2009,02,19,05,08,-2.30
2009,02,19,05,09,-2.30
2009,02,19,05,10,-2.30
2009,02,19,05,11,-2.30
2009,02,19,05,12,-2.30
2009,02,19,05,13,-2.30
2009,02,19,05,14,-2.30
2009,02,19,05,15,-2.30
2009,02,19,05,16,-2.30
2009,02,19,05,17,-2.30
2009,02,19,05,18,-2.30
2009,02,19,05,19,-2.30
2009,02,19,05,20,-2.30
2009,02,19,05,21,-2.30
2009,02,19,05,22,-2.40
2009,02,19,05,23,-2.40
2009,02,19,05,24,-2.40
2009,02,19,05,25,-2.40
2009,02,19,05,26,-2.40
2009,02,19,05,27,-2.40
2009,02,19,05,28,-2.50
2009,02,19,05,29,-2.50
2009,02,19,05,30,-2.60
2009,02,19,05,31,-2.60
2009,02,19,05,32,-2.60
2009,02,19,05,33,-2.60
2009,02,19,05,34,-2.60
2009,02,19,05,35,-2.60
2009,02,19,05,36,-2.60
2009,02,19,05,37,-2.60
2009,02,19,05,38,-2.60
2009,02,19,05,39,-2.60
2009,02,19,05,40,-2.60
2009,02,19,05,41,-2.60
2009,02,19,05,42,-2.60
2009,02,19,05,43,-2.60
2009,02,19,05,44,-2.60
2009,02,19,05,45,-2.60
2009,02,19,05,46,-2.60
2009,02,19,05,47,-2.60
2009,02,19,05,48,-2.60
2009,02,19,05,49,-2.50
2009,02,19,05,50,-2.50
2009,02,19,05,51,-2.50
2009,02,19,05,52,-2.50
2009,02,19,05,53,-2.50
2009,02,19,05,54,-2.40
2009,02,19,05,55,-2.40
2009,02,19,05,56,-2.40
2009,02,19,05,57,-2.40
2009,02,19,05,58,-2.40
2009,02,19,05,59,-2.40
2009,02,19,06,00,-2.40
2009,02,19,06,01,-2.40
2009,02,19,06,02,-2.40
2009,02,19,06,03,-2.40
2009,02,19,06,04,-2.40
2009,02,19,06,05,-2.40
2009,02,19,06,06,-2.30
2009,02,19,06,07,-2.30
2009,02,19,06,08,-2.30
2009,02,19,06,09,-2.30
2009,02,19,06,10,-2.30
2009,02,19,06,11,-2.30
2009,02,19,06,12,-2.30
2009,02,19,06,13,-2.30
2009,02,19,06,14,-2.30
2009,02,19,06,15,-2.30
2009,02,19,06,16,-2.30
2009,02,19,06,17,-2.30
2009,02,19,06,18,-2.30
2009,02,19,06,19,-2.30
2009,02,19,06,20,-2.30
2009,02,19,06,21,-2.30
2009,02,19,06,22,-2.30
2009,02,19,06,23,-2.30
2009,02,19,06,24,-2.30
2009,02,19,06,25,-2.30
2009,02,19,06,26,-2.30
2009,02,19,06,27,-2.30
2009,02,19,06,28,-2.20
2009,02,19,06,29,-2.20
2009,02,19,06,30,-2.20
2009,02,19,06,31,-2.20
2009,02,19,06,32,-2.20
2009,02,19,06,33,-2.20
2009,02,19,06,34,-2.20
2009,02,19,06,35,-2.20
2009,02,19,06,36,-2.20
2009,02,19,06,37,-2.20
2009,02,19,06,38,-2.20
2009,02,19,06,39,-2.20
2009,02,19,06,40,-2.20
2009,02,19,06,41,-2.20
2009,02,19,06,42,-2.20
2009,02,19,06,43,-2.20
2009,02,19,06,44,-2.20
2009,02,19,06,45,-2.20
2009,02,19,06,46,-2.20
2009,02,19,06,47,-2.20
2009,02,19,06,48,-2.20
2009,02,19,06,49,-2.20
2009,02,19,06,50,-2.20
2009,02,19,06,51,-2.20
2009,02,19,06,52,-2.20
2009,02,19,06,53,-2.20
2009,02,19,06,54,-2.20
2009,02,19,06,55,-2.20
2009,02,19,06,56,-2.20
2009,02,19,06,57,-2.20
2009,02,19,06,58,-2.20
2009,02,19,06,59,-2.20
2009,02,19,07,00,-2.20
2009,02,19,07,01,-2.20
2009,02,19,07,02,-2.20
2009,02,19,07,03,-2.20
2009,02,19,07,04,-2.20
2009,02,19,07,05,-2.20
2009,02,19,07,06,-2.20
2009,02,19,07,07,-2.20
2009,02,19,07,08,-2.20
2009,02,19,07,09,-2.20
2009,02,19,07,10,-2.10
2009,02,19,07,11,-2.10
2009,02,19,07,12,-2.10
2009,02,19,07,13,-2.10
2009,02,19,07,14,-2.10
2009,02,19,07,15,-2.00
2009,02,19,07,16,-2.00
2009,02,19,07,17,-2.00
2009,02,19,07,18,-2.00
2009,02,19,07,19,-2.00
2009,02,19,07,20,-2.00
2009,02,19,07,21,-2.00
2009,02,19,07,22,-1.90
2009,02,19,07,23,-1.90
2009,02,19,07,24,-1.90
2009,02,19,07,25,-1.90
2009,02,19,07,26,-1.90
2009,02,19,07,27,-1.90
2009,02,19,07,28,-1.90
2009,02,19,07,29,-1.80
2009,02,19,07,30,-1.80
2009,02,19,07,31,-1.80
2009,02,19,07,32,-1.80
2009,02,19,07,33,-1.80
2009,02,19,07,34,-1.80
2009,02,19,07,35,-1.80
2009,02,19,07,36,-1.80
2009,02,19,07,37,-1.80
2009,02,19,07,38,-1.80
2009,02,19,07,39,-1.80
2009,02,19,07,40,-1.80
2009,02,19,07,41,-1.90
2009,02,19,07,42,-1.90
2009,02,19,07,43,-1.90
2009,02,19,07,44,-1.90
2009,02,19,07,45,-1.90
2009,02,19,07,46,-1.90
2009,02,19,07,47,-1.90
2009,02,19,07,48,-1.90
2009,02,19,07,49,-1.90
2009,02,19,07,50,-1.90
2009,02,19,07,51,-1.90
2009,02,19,07,52,-1.80
2009,02,19,07,53,-1.90
2009,02,19,07,54,-1.90
2009,02,19,07,55,-1.90
2009,02,19,07,56,-1.90
2009,02,19,07,57,-1.90
2009,02,19,07,58,-1.80
2009,02,19,07,59,-1.80
2009,02,19,08,00,-1.80
2009,02,19,08,01,-1.80
2009,02,19,08,02,-1.80
2009,02,19,08,03,-1.80
2009,02,19,08,04,-1.80
2009,02,19,08,05,-1.80
2009,02,19,08,06,-1.80
2009,02,19,08,07,-1.70
2009,02,19,08,08,-1.70
2009,02,19,08,09,-1.70
2009,02,19,08,10,-1.70
2009,02,19,08,11,-1.60
2009,02,19,08,12,-1.60
2009,02,19,08,13,-1.50
2009,02,19,08,14,-1.40
2009,02,19,08,15,-1.40
2009,02,19,08,16,-1.40
2009,02,19,08,17,-1.30
2009,02,19,08,18,-1.30
2009,02,19,08,19,-1.30
2009,02,19,08,20,-1.30
2009,02,19,08,21,-1.30
2009,02,19,08,22,-1.30
2009,02,19,08,23,-1.30
2009,02,19,08,24,-1.20
2009,02,19,08,25,-1.20
2009,02,19,08,26,-1.20
2009,02,19,08,27,-1.20
2009,02,19,08,28,-1.20
2009,02,19,08,29,-1.10
2009,02,19,08,30,-1.10
2009,02,19,08,31,-1.10
2009,02,19,08,32,-1.10
2009,02,19,08,33,-1.10
2009,02,19,08,34,-1.00
2009,02,19,08,35,-1.00
2009,02,19,08,36,-1.00
2009,02,19,08,37,-1.00
2009,02,19,08,38,-1.00
2009,02,19,08,39,-0.90
2009,02,19,08,40,-0.90
2009,02,19,08,41,-0.90
2009,02,19,08,42,-0.90
2009,02,19,08,43,-0.90
2009,02,19,08,44,-0.90
2009,02,19,08,45,-0.80
2009,02,19,08,46,-0.80
2009,02,19,08,47,-0.80
2009,02,19,08,48,-0.70
2009,02,19,08,49,-0.70
2009,02,19,08,50,-0.60
2009,02,19,08,51,-0.60
2009,02,19,08,52,-0.60
2009,02,19,08,53,-0.50
2009,02,19,08,54,-0.50
2009,02,19,08,55,-0.50
2009,02,19,08,56,-0.40
2009,02,19,08,57,-0.40
2009,02,19,08,58,-0.40
2009,02,19,08,59,-0.40
2009,02,19,09,00,-0.40
2009,02,19,09,01,-0.30
2009,02,19,09,02,-0.30
2009,02,19,09,03,-0.30
2009,02,19,09,04,-0.30
2009,02,19,09,05,-0.30
2009,02,19,09,06,-0.20
2009,02,19,09,07,-0.20
2009,02,19,09,08,-0.20
2009,02,19,09,09,-0.20
2009,02,19,09,10,-0.20
2009,02,19,09,11,-0.10
2009,02,19,09,12,-0.10
2009,02,19,09,13,-0.10
2009,02,19,09,14,-0.10
2009,02,19,09,15,0.00
2009,02,19,09,16,0.00
2009,02,19,09,17,0.00
2009,02,19,09,18,0.10
2009,02,19,09,19,0.10
2009,02,19,09,20,0.10
2009,02,19,09,21,0.10
2009,02,19,09,22,0.10
2009,02,19,09,23,0.10
2009,02,19,09,24,0.10
2009,02,19,09,25,0.10
2009,02,19,09,26,0.20
2009,02,19,09,27,0.20
2009,02,19,09,28,0.20
2009,02,19,09,29,0.20
2009,02,19,09,30,0.20
2009,02,19,09,31,0.20
2009,02,19,09,32,0.20
2009,02,19,09,33,0.20
2009,02,19,09,34,0.30
2009,02,19,09,35,0.30
2009,02,19,09,36,0.30
2009,02,19,09,37,0.30
2009,02,19,09,38,0.30
2009,02,19,09,39,0.40
2009,02,19,09,40,0.40
2009,02,19,09,41,0.40
2009,02,19,09,42,0.40
2009,02,19,09,43,0.50
2009,02,19,09,44,0.50
2009,02,19,09,45,0.60
2009,02,19,09,46,0.60
2009,02,19,09,47,0.60
2009,02,19,09,48,0.60
2009,02,19,09,49,0.70
2009,02,19,09,50,0.70
2009,02,19,09,51,0.70
2009,02,19,09,52,0.70
2009,02,19,09,53,0.80
2009,02,19,09,54,0.80
2009,02,19,09,55,0.80
2009,02,19,09,56,0.80
2009,02,19,09,57,0.90
2009,02,19,09,58,0.90
2009,02,19,09,59,1.00
2009,02,19,10,00,1.00
2009,02,19,10,01,1.10
2009,02,19,10,02,1.10
2009,02,19,10,03,1.20
2009,02,19,10,04,1.20
2009,02,19,10,05,1.30
2009,02,19,10,06,1.30
2009,02,19,10,07,1.30
2009,02,19,10,08,1.30
2009,02,19,10,09,1.40
2009,02,19,10,10,1.50
2009,02,19,10,11,1.60
2009,02,19,10,12,1.70
2009,02,19,10,13,1.80
2009,02,19,10,14,1.80
2009,02,19,10,15,1.90
2009,02,19,10,16,1.90
2009,02,19,10,17,2.00
2009,02,19,10,18,2.10
2009,02,19,10,19,2.10
2009,02,19,10,20,2.20
2009,02,19,10,21,2.20
2009,02,19,10,22,2.30
2009,02,19,10,23,2.40
2009,02,19,10,24,2.40
2009,02,19,10,25,2.50
2009,02,19,10,26,2.50
2009,02,19,10,27,2.60
2009,02,19,10,28,2.60
2009,02,19,10,29,2.70
2009,02,19,10,30,2.80
2009,02,19,10,31,2.90
2009,02,19,10,32,2.90
2009,02,19,10,33,3.00
2009,02,19,10,34,3.10
2009,02,19,10,35,3.20
2009,02,19,10,36,3.20
2009,02,19,10,37,3.30
2009,02,19,10,38,3.50
2009,02,19,10,39,3.50
2009,02,19,10,40,3.70
2009,02,19,10,41,3.70
2009,02,19,10,42,3.80
2009,02,19,10,43,3.90
2009,02,19,10,44,4.00
2009,02,19,10,45,4.10
2009,02,19,10,46,4.20
2009,02,19,10,47,4.20
2009,02,19,10,48,4.30
2009,02,19,10,49,4.40
2009,02,19,10,50,4.50
2009,02,19,10,51,4.60
2009,02,19,10,52,4.70
2009,02,19,10,53,4.80
2009,02,19,10,54,4.80
2009,02,19,10,55,4.90
2009,02,19,10,56,5.00
2009,02,19,10,57,5.10
2009,02,19,10,58,5.10
2009,02,19,10,59,5.20
2009,02,19,11,00,5.30
2009,02,19,11,01,5.40
2009,02,19,11,02,5.50
2009,02,19,11,03,5.60
2009,02,19,11,04,5.70
2009,02,19,11,05,5.70
2009,02,19,11,06,5.80
2009,02,19,11,07,5.90
2009,02,19,11,08,5.90
2009,02,19,11,09,6.00
2009,02,19,11,10,6.00
2009,02,19,11,11,6.00
2009,02,19,11,12,6.10
2009,02,19,11,13,6.10
2009,02,19,11,14,6.20
2009,02,19,11,15,6.20
2009,02,19,11,16,6.30
2009,02,19,11,17,6.30
2009,02,19,11,18,6.40
2009,02,19,11,19,6.40
2009,02,19,11,20,6.50
2009,02,19,11,21,6.50
2009,02,19,11,22,6.60
2009,02,19,11,23,6.60
2009,02,19,11,24,6.70
2009,02,19,11,25,6.80
2009,02,19,11,26,6.80
2009,02,19,11,27,6.80
2009,02,19,11,28,6.90
2009,02,19,11,29,6.90
2009,02,19,11,30,6.90
2009,02,19,11,31,7.00
2009,02,19,11,32,7.00
2009,02,19,11,33,7.00
2009,02,19,11,34,7.00
2009,02,19,11,35,7.00
2009,02,19,11,36,7.00
2009,02,19,11,37,6.90
2009,02,19,11,38,6.90
2009,02,19,11,39,6.90
2009,02,19,11,40,6.90
2009,02,19,11,41,7.00
2009,02,19,11,42,7.00
2009,02,19,11,43,7.10
2009,02,19,11,44,7.10
2009,02,19,11,45,7.20
2009,02,19,11,46,7.20
2009,02,19,11,47,7.20
2009,02,19,11,48,7.30
2009,02,19,11,49,7.40
2009,02,19,11,50,7.50
2009,02,19,11,51,7.60
2009,02,19,11,52,7.70
2009,02,19,11,53,7.70
2009,02,19,11,54,7.80
2009,02,19,11,55,7.90
2009,02,19,11,56,7.90
2009,02,19,11,57,7.90
2009,02,19,11,58,7.90
2009,02,19,11,59,7.90
2009,02,19,12,00,8.00
2009,02,19,12,01,8.10
2009,02,19,12,02,8.10
2009,02,19,12,03,8.20
2009,02,19,12,04,8.20
2009,02,19,12,05,8.30
2009,02,19,12,06,8.30
2009,02,19,12,07,8.40
2009,02,19,12,08,8.40
2009,02,19,12,09,8.40
2009,02,19,12,10,8.40
2009,02,19,12,11,8.40
2009,02,19,12,12,8.50
2009,02,19,12,13,8.50
2009,02,19,12,14,8.50
2009,02,19,12,15,8.60
2009,02,19,12,16,8.60
2009,02,19,12,17,8.60
2009,02,19,12,18,8.70
2009,02,19,12,19,8.70
2009,02,19,12,20,8.80
2009,02,19,12,21,8.80
2009,02,19,12,22,8.90
2009,02,19,12,23,8.90
2009,02,19,12,24,8.90
2009,02,19,12,25,9.00
2009,02,19,12,26,9.10
2009,02,19,12,27,9.10
2009,02,19,12,28,9.20
2009,02,19,12,29,9.20
2009,02,19,12,30,9.20
2009,02,19,12,31,9.30
2009,02,19,12,32,9.30
2009,02,19,12,33,9.30
2009,02,19,12,34,9.40
2009,02,19,12,35,9.40
2009,02,19,12,36,9.40
2009,02,19,12,37,9.40
2009,02,19,12,38,9.50
2009,02,19,12,39,9.50
2009,02,19,12,40,9.50
2009,02,19,12,41,9.40
2009,02,19,12,42,9.30
2009,02,19,12,43,9.40
2009,02,19,12,44,9.40
2009,02,19,12,45,9.40
2009,02,19,12,46,9.40
2009,02,19,12,47,9.50
2009,02,19,12,48,9.50
2009,02,19,12,49,9.50
2009,02,19,12,50,9.60
2009,02,19,12,51,9.60
2009,02,19,12,52,9.60
2009,02,19,12,53,9.60
2009,02,19,12,54,9.60
2009,02,19,12,55,9.60
2009,02,19,12,56,9.60
2009,02,19,12,57,9.70
2009,02,19,12,58,9.70
2009,02,19,12,59,9.70
2009,02,19,13,00,9.80
2009,02,19,13,01,9.80
2009,02,19,13,02,9.90
2009,02,19,13,03,9.90
2009,02,19,13,04,9.90
2009,02,19,13,05,10.00
2009,02,19,13,06,10.10
2009,02,19,13,07,10.20
2009,02,19,13,08,10.30
2009,02,19,13,09,10.40
2009,02,19,13,10,10.50
2009,02,19,13,11,10.60
2009,02,19,13,12,10.60
2009,02,19,13,13,10.70
2009,02,19,13,14,10.60
2009,02,19,13,15,10.60
2009,02,19,13,16,10.60
2009,02,19,13,17,10.70
2009,02,19,13,18,10.70
2009,02,19,13,19,10.70
2009,02,19,13,20,10.70
2009,02,19,13,21,10.70
2009,02,19,13,22,10.70
2009,02,19,13,23,10.80
2009,02,19,13,24,10.80
2009,02,19,13,25,10.80
2009,02,19,13,26,10.80
2009,02,19,13,27,10.80
2009,02,19,13,28,10.80
2009,02,19,13,29,10.90
2009,02,19,13,30,11.00
2009,02,19,13,31,11.10
2009,02,19,13,32,11.20
2009,02,19,13,33,11.20
2009,02,19,13,34,11.20
2009,02,19,13,35,11.20
2009,02,19,13,36,11.20
2009,02,19,13,37,11.10
2009,02,19,13,38,11.10
2009,02,19,13,39,11.00
2009,02,19,13,40,11.00
2009,02,19,13,41,11.00
2009,02,19,13,42,11.10
2009,02,19,13,43,11.10
2009,02,19,13,44,11.20
2009,02,19,13,45,11.20
2009,02,19,13,46,11.20
2009,02,19,13,47,11.10
2009,02,19,13,48,11.00
2009,02,19,13,49,10.90
2009,02,19,13,50,10.80
2009,02,19,13,51,10.60
2009,02,19,13,52,10.50
2009,02,19,13,53,10.50
2009,02,19,13,54,10.40
2009,02,19,13,55,10.40
2009,02,19,13,56,10.40
2009,02,19,13,57,10.40
2009,02,19,13,58,10.40
2009,02,19,13,59,10.30
2009,02,19,14,00,10.30
2009,02,19,14,01,10.20
2009,02,19,14,02,10.20
2009,02,19,14,03,10.20
2009,02,19,14,04,10.20
2009,02,19,14,05,10.20
2009,02,19,14,06,10.10
2009,02,19,14,07,10.10
2009,02,19,14,08,10.10
2009,02,19,14,09,10.10
2009,02,19,14,10,10.20
2009,02,19,14,11,10.20
2009,02,19,14,12,10.30
2009,02,19,14,13,10.30
2009,02,19,14,14,10.30
2009,02,19,14,15,10.30
2009,02,19,14,16,10.20
2009,02,19,14,17,10.20
2009,02,19,14,18,10.30
2009,02,19,14,19,10.30
2009,02,19,14,20,10.30
2009,02,19,14,21,10.40
2009,02,19,14,22,10.40
2009,02,19,14,23,10.30
2009,02,19,14,24,10.30
2009,02,19,14,25,10.20
2009,02,19,14,26,10.20
2009,02,19,14,27,10.10
2009,02,19,14,28,10.10
2009,02,19,14,29,10.10
2009,02,19,14,30,10.10
2009,02,19,14,31,10.10
2009,02,19,14,32,10.20
2009,02,19,14,33,10.20
2009,02,19,14,34,10.20
2009,02,19,14,35,10.20
2009,02,19,14,36,10.10
2009,02,19,14,37,10.00
2009,02,19,14,38,10.00
2009,02,19,14,39,9.90
2009,02,19,14,40,9.90
2009,02,19,14,41,9.90
2009,02,19,14,42,9.90
2009,02,19,14,43,10.00
2009,02,19,14,44,10.00
2009,02,19,14,45,10.00
2009,02,19,14,46,10.00
2009,02,19,14,47,10.00
2009,02,19,14,48,10.00
2009,02,19,14,49,10.10
2009,02,19,14,50,10.10
2009,02,19,14,51,10.10
2009,02,19,14,52,10.10
2009,02,19,14,53,10.10
2009,02,19,14,54,10.20
2009,02,19,14,55,10.20
2009,02,19,14,56,10.10
2009,02,19,14,57,10.10
2009,02,19,14,58,10.10
2009,02,19,14,59,10.10
2009,02,19,15,00,10.10
2009,02,19,15,01,10.10
2009,02,19,15,02,10.10
2009,02,19,15,03,10.20
2009,02,19,15,04,10.20
2009,02,19,15,05,10.20
2009,02,19,15,06,10.20
2009,02,19,15,07,10.10
2009,02,19,15,08,10.10
2009,02,19,15,09,10.10
2009,02,19,15,10,10.10
2009,02,19,15,11,10.10
2009,02,19,15,12,10.10
2009,02,19,15,13,10.00
2009,02,19,15,14,10.00
2009,02,19,15,15,10.00
2009,02,19,15,16,10.00
2009,02,19,15,17,10.00
2009,02,19,15,18,10.00
2009,02,19,15,19,10.00
2009,02,19,15,20,9.90
2009,02,19,15,21,9.90
2009,02,19,15,22,9.90
2009,02,19,15,23,9.90
2009,02,19,15,24,9.90
2009,02,19,15,25,9.90
2009,02,19,15,26,9.90
2009,02,19,15,27,9.90
2009,02,19,15,28,10.00
2009,02,19,15,29,10.00
2009,02,19,15,30,10.00
2009,02,19,15,31,10.00
2009,02,19,15,32,10.10
2009,02,19,15,33,10.10
2009,02,19,15,34,10.10
2009,02,19,15,35,10.00
2009,02,19,15,36,10.00
2009,02,19,15,37,10.00
2009,02,19,15,38,9.90
2009,02,19,15,39,9.90
2009,02,19,15,40,9.90
2009,02,19,15,41,9.90
2009,02,19,15,42,9.90
2009,02,19,15,43,9.90
2009,02,19,15,44,9.90
2009,02,19,15,45,10.00
2009,02,19,15,46,10.00
2009,02,19,15,47,10.00
2009,02,19,15,48,10.00
2009,02,19,15,49,10.00
2009,02,19,15,50,10.00
2009,02,19,15,51,10.00
2009,02,19,15,52,10.00
2009,02,19,15,53,10.00
2009,02,19,15,54,10.00
2009,02,19,15,55,10.10
2009,02,19,15,56,10.10
2009,02,19,15,57,10.10
2009,02,19,15,58,10.10
2009,02,19,15,59,10.10
2009,02,19,16,00,10.10
2009,02,19,16,01,10.10
2009,02,19,16,02,10.10
2009,02,19,16,03,10.20
2009,02,19,16,04,10.20
2009,02,19,16,05,10.20
2009,02,19,16,06,10.20
2009,02,19,16,07,10.20
2009,02,19,16,08,10.30
2009,02,19,16,09,10.30
2009,02,19,16,10,10.30
2009,02,19,16,11,10.30
2009,02,19,16,12,10.30
2009,02,19,16,13,10.20
2009,02,19,16,14,10.20
2009,02,19,16,15,10.20
2009,02,19,16,16,10.20
2009,02,19,16,17,10.20
2009,02,19,16,18,10.20
2009,02,19,16,19,10.20
2009,02,19,16,20,10.20
2009,02,19,16,21,10.20
2009,02,19,16,22,10.20
2009,02,19,16,23,10.20
2009,02,19,16,24,10.10
2009,02,19,16,25,10.10
2009,02,19,16,26,10.10
2009,02,19,16,27,10.20
2009,02,19,16,28,10.10
2009,02,19,16,29,10.10
2009,02,19,16,30,10.10
2009,02,19,16,31,10.10
2009,02,19,16,32,10.10
2009,02,19,16,33,10.10
2009,02,19,16,34,10.10
2009,02,19,16,35,10.00
2009,02,19,16,36,10.00
2009,02,19,16,37,10.00
2009,02,19,16,38,9.90
2009,02,19,16,39,9.90
2009,02,19,16,40,9.90
2009,02,19,16,41,9.90
2009,02,19,16,42,9.90
2009,02,19,16,43,9.90
2009,02,19,16,44,9.90
2009,02,19,16,45,9.90
2009,02,19,16,46,9.90
2009,02,19,16,47,9.90
2009,02,19,16,48,9.90
2009,02,19,16,49,9.90
2009,02,19,16,50,9.90
2009,02,19,16,51,9.90
2009,02,19,16,52,9.90
2009,02,19,16,53,9.90
2009,02,19,16,54,9.90
2009,02,19,16,55,9.90
2009,02,19,16,56,9.90
2009,02,19,16,57,10.00
2009,02,19,16,58,10.00
2009,02,19,16,59,10.00
2009,02,19,17,00,10.00
2009,02,19,17,01,10.00
2009,02,19,17,02,10.00
2009,02,19,17,03,10.00
2009,02,19,17,04,9.90
2009,02,19,17,05,9.90
2009,02,19,17,06,9.90
2009,02,19,17,07,9.90
2009,02,19,17,08,9.90
2009,02,19,17,09,9.80
2009,02,19,17,10,9.80
2009,02,19,17,11,9.80
2009,02,19,17,12,9.80
2009,02,19,17,13,9.70
2009,02,19,17,14,9.70
2009,02,19,17,15,9.60
2009,02,19,17,16,9.60
2009,02,19,17,17,9.60
2009,02,19,17,18,9.60
2009,02,19,17,19,9.60
2009,02,19,17,20,9.50
2009,02,19,17,21,9.50
2009,02,19,17,22,9.40
2009,02,19,17,23,9.40
2009,02,19,17,24,9.30
2009,02,19,17,25,9.30
2009,02,19,17,26,9.30
2009,02,19,17,27,9.20
2009,02,19,17,28,9.20
2009,02,19,17,29,9.20
2009,02,19,17,30,9.20
2009,02,19,17,31,9.10
2009,02,19,17,32,9.10